SWA2770 KDAL-KLIT

Flight info

Callsign SWA2770
Flight time 0h 46m
Altitude 33000
Route EMMTT4 BSKAT LIT
Aircraft B738/M-SADE2E3GIJ4RWZ/LB1D1

Departure

Time 2026-05-08 03:22
Airport Dallas Love Field (KDAL)

Arrival

Time 2026-05-08 04:08
Airport Bill & Hillary Clinton National Airport/Adams Field (KLIT)
Time Latitude Longitude Altitude Speed Heading
2026-05-08 02:58 32.84648 -96.84844 490 ft 0 kts 181°
2026-05-08 03:13 32.84661 -96.84843 484 ft 2 kts 185°
2026-05-08 03:13 32.84678 -96.84841 480 ft 2 kts 192°
2026-05-08 03:13 32.84693 -96.84833 485 ft 2 kts 259°
2026-05-08 03:14 32.84691 -96.84821 481 ft 0 kts 299°
2026-05-08 03:16 32.84693 -96.84825 481 ft 3 kts 302°
2026-05-08 03:16 32.84720 -96.84877 487 ft 11 kts 301°
2026-05-08 03:16 32.84792 -96.84906 481 ft 13 kts 354°
2026-05-08 03:17 32.84864 -96.84969 489 ft 13 kts 317°
2026-05-08 03:17 32.84926 -96.85044 491 ft 13 kts 314°
2026-05-08 03:17 32.84984 -96.85117 486 ft 12 kts 309°
2026-05-08 03:17 32.85039 -96.85192 487 ft 12 kts 314°
2026-05-08 03:18 32.85106 -96.85263 491 ft 15 kts 319°
2026-05-08 03:18 32.85189 -96.85351 490 ft 17 kts 318°
2026-05-08 03:18 32.85266 -96.85426 487 ft 16 kts 320°
2026-05-08 03:18 32.85359 -96.85528 483 ft 19 kts 316°
2026-05-08 03:19 32.85457 -96.85638 484 ft 19 kts 317°
2026-05-08 03:19 32.85555 -96.85745 483 ft 19 kts 317°
2026-05-08 03:19 32.85650 -96.85756 481 ft 7 kts 44°
2026-05-08 03:19 32.85651 -96.85755 482 ft 0 kts 44°
2026-05-08 03:20 32.85660 -96.85744 484 ft 5 kts 46°
2026-05-08 03:20 32.85689 -96.85707 481 ft 8 kts 49°
2026-05-08 03:21 32.85688 -96.85634 482 ft 12 kts 127°
2026-05-08 03:21 32.85549 -96.85472 483 ft 57 kts 136°
2026-05-08 03:21 32.85085 -96.84936 488 ft 129 kts 136°
2026-05-08 03:21 32.84325 -96.84084 806 ft 163 kts 136°
2026-05-08 03:22 32.83488 -96.83159 1627 ft 173 kts 137°
2026-05-08 03:22 32.82579 -96.82193 2444 ft 181 kts 137°
2026-05-08 03:22 32.81641 -96.81139 3240 ft 184 kts 137°
2026-05-08 03:22 32.80655 -96.80088 3959 ft 200 kts 139°
2026-05-08 03:23 32.79535 -96.78915 4191 ft 229 kts 139°
2026-05-08 03:23 32.78271 -96.77571 4433 ft 258 kts 139°
2026-05-08 03:23 32.76898 -96.76101 5105 ft 270 kts 139°
2026-05-08 03:23 32.75501 -96.74581 5988 ft 275 kts 139°
2026-05-08 03:24 32.74132 -96.73003 6839 ft 280 kts 139°
2026-05-08 03:24 32.72728 -96.71368 7642 ft 286 kts 139°
2026-05-08 03:24 32.71271 -96.69677 8458 ft 292 kts 139°
2026-05-08 03:24 32.69834 -96.67985 9261 ft 298 kts 139°
2026-05-08 03:25 32.68593 -96.65974 10037 ft 313 kts 115°
2026-05-08 03:25 32.68162 -96.63363 10491 ft 337 kts 94°
2026-05-08 03:25 32.68121 -96.60474 10689 ft 363 kts 91°
2026-05-08 03:25 32.68192 -96.57412 11120 ft 379 kts 82°
2026-05-08 03:26 32.69074 -96.54460 11840 ft 382 kts 57°
2026-05-08 03:26 32.70778 -96.52066 12653 ft 379 kts 36°
2026-05-08 03:26 32.72993 -96.50403 13473 ft 376 kts 25°
2026-05-08 03:26 32.75303 -96.48939 14247 ft 378 kts 23°
2026-05-08 03:27 32.77659 -96.47484 14809 ft 386 kts 23°
2026-05-08 03:27 32.80030 -96.46011 15369 ft 393 kts 23°
2026-05-08 03:27 32.82462 -96.44479 15983 ft 398 kts 23°
2026-05-08 03:27 32.84921 -96.42911 16585 ft 404 kts 23°
2026-05-08 03:28 32.87411 -96.41312 17180 ft 410 kts 24°
2026-05-08 03:28 32.89936 -96.39683 17767 ft 416 kts 23°
2026-05-08 03:28 32.92497 -96.38029 18350 ft 421 kts 23°
2026-05-08 03:28 32.95085 -96.36359 18870 ft 425 kts 23°
2026-05-08 03:29 32.97633 -96.34534 19441 ft 433 kts 32°
2026-05-08 03:29 32.99823 -96.32037 20053 ft 442 kts 47°
2026-05-08 03:29 33.01516 -96.28934 20572 ft 452 kts 62°
2026-05-08 03:29 33.02759 -96.25529 21105 ft 457 kts 65°
2026-05-08 03:30 33.05156 -96.18450 22171 ft 464 kts 65°
2026-05-08 03:30 33.07617 -96.11289 23187 ft 470 kts 64°
2026-05-08 03:31 33.10168 -96.04030 23966 ft 481 kts 64°
2026-05-08 03:31 33.12773 -95.96648 24649 ft 490 kts 64°
2026-05-08 03:32 33.14114 -95.92835 25010 ft 494 kts 65°
2026-05-08 03:32 33.15428 -95.89090 25342 ft 499 kts 65°
2026-05-08 03:32 33.16775 -95.85248 25669 ft 503 kts 65°
2026-05-08 03:32 33.18131 -95.81376 25994 ft 508 kts 65°
2026-05-08 03:33 33.19495 -95.77469 26299 ft 512 kts 65°
2026-05-08 03:33 33.20869 -95.73524 26614 ft 517 kts 65°
2026-05-08 03:33 33.22252 -95.69547 26926 ft 521 kts 66°
2026-05-08 03:33 33.23646 -95.65535 27214 ft 525 kts 66°
2026-05-08 03:34 33.25050 -95.61488 27562 ft 529 kts 66°
2026-05-08 03:34 33.26442 -95.57469 27862 ft 533 kts 66°
2026-05-08 03:34 33.27863 -95.53362 28149 ft 537 kts 66°
2026-05-08 03:34 33.29294 -95.49223 28430 ft 540 kts 66°
2026-05-08 03:35 33.30730 -95.45061 28711 ft 544 kts 66°
2026-05-08 03:35 33.32176 -95.40867 28970 ft 548 kts 66°
2026-05-08 03:35 33.33632 -95.36640 29241 ft 551 kts 67°
2026-05-08 03:35 33.35254 -95.31922 29548 ft 554 kts 67°
2026-05-08 03:36 33.36718 -95.27656 29878 ft 556 kts 67°
2026-05-08 03:36 33.38190 -95.23364 30166 ft 558 kts 67°
2026-05-08 03:36 33.39663 -95.19060 30462 ft 559 kts 67°
2026-05-08 03:36 33.41137 -95.14752 30772 ft 560 kts 67°
2026-05-08 03:37 33.42609 -95.10441 31092 ft 560 kts 67°
2026-05-08 03:37 33.44081 -95.06125 31438 ft 560 kts 67°
2026-05-08 03:37 33.45547 -95.01819 31832 ft 558 kts 67°
2026-05-08 03:37 33.47010 -94.97520 32285 ft 555 kts 67°
2026-05-08 03:38 33.48458 -94.93255 32826 ft 550 kts 67°
2026-05-08 03:38 33.49896 -94.89017 33081 ft 550 kts 67°
2026-05-08 03:38 33.51339 -94.84758 33051 ft 551 kts 67°
2026-05-08 03:39 33.54175 -94.76368 33051 ft 544 kts 67°
2026-05-08 03:39 33.57010 -94.67962 33069 ft 544 kts 67°
2026-05-08 03:40 33.59844 -94.59533 33077 ft 545 kts 67°
2026-05-08 03:40 33.62682 -94.51072 33061 ft 548 kts 67°
2026-05-08 03:41 33.65488 -94.42683 32875 ft 538 kts 67°
2026-05-08 03:41 33.66876 -94.38523 32291 ft 538 kts 67°
2026-05-08 03:41 33.68271 -94.34340 31526 ft 542 kts 67°
2026-05-08 03:41 33.69678 -94.30115 30703 ft 548 kts 67°
2026-05-08 03:42 33.71105 -94.25847 29860 ft 553 kts 66°
2026-05-08 03:42 33.72754 -94.21683 29179 ft 549 kts 58°
2026-05-08 03:42 33.74617 -94.17727 28811 ft 539 kts 57°
2026-05-08 03:42 33.76508 -94.13897 28481 ft 529 kts 56°
2026-05-08 03:43 33.78387 -94.10128 28024 ft 523 kts 56°
2026-05-08 03:43 33.80211 -94.06439 27517 ft 518 kts 56°
2026-05-08 03:43 33.82021 -94.02723 27033 ft 511 kts 56°
2026-05-08 03:43 33.83783 -93.99057 26433 ft 502 kts 56°
2026-05-08 03:44 33.85507 -93.95441 25756 ft 496 kts 56°
2026-05-08 03:44 33.87206 -93.91864 25090 ft 489 kts 56°
2026-05-08 03:44 33.88880 -93.88333 24495 ft 482 kts 56°
2026-05-08 03:44 33.90526 -93.84862 23939 ft 474 kts 56°
2026-05-08 03:45 33.92146 -93.81445 23335 ft 466 kts 56°
2026-05-08 03:45 33.93743 -93.78078 22604 ft 460 kts 56°
2026-05-08 03:45 33.95323 -93.74744 21843 ft 456 kts 56°
2026-05-08 03:45 33.96866 -93.71488 21148 ft 451 kts 56°
2026-05-08 03:46 33.98411 -93.68222 20471 ft 446 kts 56°
2026-05-08 03:46 33.99933 -93.65001 19819 ft 440 kts 56°
2026-05-08 03:46 34.01442 -93.61807 19371 ft 439 kts 56°
2026-05-08 03:46 34.02946 -93.58621 19222 ft 431 kts 56°
2026-05-08 03:47 34.04404 -93.55551 19088 ft 413 kts 54°
2026-05-08 03:47 34.05902 -93.52686 19056 ft 395 kts 51°
2026-05-08 03:47 34.06908 -93.50862 19069 ft 395 kts 51°
2026-05-08 03:47 34.08451 -93.48127 19069 ft 394 kts 50°
2026-05-08 03:48 34.10512 -93.44496 19073 ft 396 kts 50°
2026-05-08 03:48 34.12064 -93.41745 19080 ft 397 kts 51°
2026-05-08 03:48 34.13615 -93.38978 19077 ft 398 kts 51°
2026-05-08 03:48 34.15163 -93.36201 19072 ft 399 kts 51°
2026-05-08 03:49 34.16205 -93.34325 19072 ft 398 kts 51°
2026-05-08 03:49 34.17744 -93.31542 19099 ft 398 kts 51°
2026-05-08 03:49 34.19257 -93.28805 19077 ft 397 kts 51°
2026-05-08 03:49 34.20787 -93.26034 19071 ft 396 kts 51°
2026-05-08 03:50 34.22309 -93.23272 19074 ft 394 kts 51°
2026-05-08 03:50 34.23825 -93.20522 19076 ft 393 kts 51°
2026-05-08 03:50 34.25337 -93.17775 19077 ft 392 kts 51°
2026-05-08 03:50 34.26843 -93.15039 19079 ft 391 kts 51°
2026-05-08 03:51 34.28348 -93.12301 19077 ft 391 kts 51°
2026-05-08 03:51 34.29850 -93.09569 19075 ft 391 kts 51°
2026-05-08 03:51 34.31354 -93.06830 19083 ft 391 kts 51°
2026-05-08 03:51 34.32858 -93.04089 19081 ft 391 kts 51°
2026-05-08 03:52 34.34366 -93.01341 19082 ft 392 kts 51°
2026-05-08 03:52 34.35853 -92.98626 19066 ft 392 kts 51°
2026-05-08 03:52 34.37344 -92.95898 19031 ft 384 kts 51°
2026-05-08 03:52 34.38805 -92.93219 18869 ft 378 kts 51°
2026-05-08 03:53 34.40250 -92.90574 18563 ft 376 kts 51°
2026-05-08 03:53 34.41692 -92.87935 18212 ft 374 kts 51°
2026-05-08 03:53 34.43115 -92.85328 17714 ft 370 kts 51°
2026-05-08 03:53 34.44531 -92.82732 17182 ft 368 kts 52°
2026-05-08 03:54 34.45931 -92.80163 16800 ft 361 kts 52°
2026-05-08 03:54 34.47283 -92.77679 16371 ft 356 kts 52°
2026-05-08 03:54 34.48639 -92.75186 15862 ft 353 kts 52°
2026-05-08 03:54 34.49986 -92.72710 15388 ft 350 kts 52°
2026-05-08 03:55 34.51318 -92.70260 14928 ft 346 kts 52°
2026-05-08 03:55 34.52635 -92.67836 14469 ft 343 kts 52°
2026-05-08 03:55 34.53939 -92.65434 14010 ft 340 kts 52°
2026-05-08 03:55 34.55233 -92.63048 13505 ft 337 kts 52°
2026-05-08 03:56 34.56513 -92.60687 13018 ft 334 kts 53°
2026-05-08 03:56 34.57780 -92.58347 12538 ft 330 kts 53°
2026-05-08 03:56 34.59033 -92.56033 12075 ft 327 kts 53°
2026-05-08 03:56 34.60275 -92.53738 11587 ft 324 kts 52°
2026-05-08 03:57 34.61604 -92.51609 11143 ft 318 kts 46°
2026-05-08 03:57 34.63022 -92.49566 10681 ft 315 kts 45°
2026-05-08 03:57 34.64445 -92.47554 10232 ft 312 kts 45°
2026-05-08 03:57 34.65858 -92.45566 9780 ft 309 kts 45°
2026-05-08 03:58 34.67260 -92.43604 9323 ft 305 kts 45°
2026-05-08 03:58 34.68641 -92.41672 8882 ft 301 kts 45°
2026-05-08 03:58 34.70007 -92.39764 8434 ft 298 kts 45°
2026-05-08 03:58 34.71360 -92.37876 8012 ft 294 kts 45°
2026-05-08 03:59 34.72684 -92.36034 7694 ft 286 kts 45°
2026-05-08 03:59 34.73976 -92.34245 7241 ft 284 kts 45°
2026-05-08 03:59 34.75278 -92.32451 6797 ft 282 kts 45°
2026-05-08 03:59 34.76575 -92.30673 6380 ft 279 kts 45°
2026-05-08 04:00 34.77862 -92.28924 5910 ft 277 kts 45°
2026-05-08 04:00 34.79143 -92.27198 5494 ft 273 kts 45°
2026-05-08 04:00 34.80415 -92.25495 5126 ft 268 kts 45°
2026-05-08 04:00 34.81631 -92.23873 5035 ft 252 kts 45°
2026-05-08 04:01 34.82782 -92.22337 4927 ft 239 kts 45°
2026-05-08 04:01 34.83873 -92.20882 4820 ft 226 kts 45°
2026-05-08 04:01 34.84911 -92.19498 4634 ft 218 kts 45°
2026-05-08 04:01 34.85932 -92.18144 4331 ft 216 kts 45°
2026-05-08 04:02 34.86938 -92.16823 4017 ft 211 kts 45°
2026-05-08 04:02 34.87949 -92.15526 3648 ft 210 kts 45°
2026-05-08 04:02 34.88955 -92.14252 3288 ft 208 kts 47°
2026-05-08 04:02 34.89629 -92.12759 2927 ft 205 kts 82°
2026-05-08 04:03 34.89448 -92.11104 2603 ft 197 kts 120°
2026-05-08 04:03 34.87577 -92.08837 2095 ft 185 kts 149°
2026-05-08 04:03 34.86365 -92.08427 2013 ft 183 kts 185°
2026-05-08 04:04 34.85119 -92.08693 2011 ft 182 kts 190°
2026-05-08 04:04 34.83913 -92.09034 1991 ft 173 kts 201°
2026-05-08 04:04 34.82834 -92.09575 1991 ft 163 kts 200°
2026-05-08 04:04 34.81845 -92.10155 1992 ft 157 kts 217°
2026-05-08 04:05 34.80988 -92.10928 1999 ft 156 kts 213°
2026-05-08 04:05 34.80144 -92.11759 2002 ft 158 kts 220°
2026-05-08 04:05 34.79359 -92.12683 1995 ft 154 kts 224°
2026-05-08 04:05 34.78617 -92.13570 1957 ft 148 kts 226°
2026-05-08 04:06 34.77936 -92.14531 1725 ft 150 kts 226°
2026-05-08 04:06 34.77232 -92.15410 1610 ft 146 kts 222°
2026-05-08 04:06 34.76507 -92.16297 1332 ft 149 kts 224°
2026-05-08 04:06 34.75794 -92.17212 1063 ft 148 kts 225°
2026-05-08 04:07 34.75086 -92.18103 814 ft 146 kts 224°
2026-05-08 04:07 34.74395 -92.18987 586 ft 142 kts 227°
2026-05-08 04:07 34.73729 -92.19838 372 ft 139 kts 226°
2026-05-08 04:07 34.73072 -92.20685 272 ft 140 kts 226°
2026-05-08 04:08 34.72472 -92.21443 267 ft 91 kts 225°
2026-05-08 04:08 34.72137 -92.21872 263 ft 58 kts 226°
2026-05-08 04:08 34.71979 -92.22089 263 ft 23 kts 233°
2026-05-08 04:08 34.71982 -92.22148 263 ft 0 kts 304°
2026-05-08 04:09 34.71986 -92.22154 264 ft 4 kts 309°
2026-05-08 04:09 34.72016 -92.22174 265 ft 6 kts 348°
2026-05-08 04:09 34.72064 -92.22155 265 ft 9 kts 39°
2026-05-08 04:09 34.72126 -92.22077 265 ft 15 kts 46°
2026-05-08 04:10 34.72199 -92.21984 265 ft 17 kts 46°
2026-05-08 04:10 34.72291 -92.21882 265 ft 18 kts 38°
2026-05-08 04:10 34.72387 -92.21786 266 ft 18 kts 40°
2026-05-08 04:10 34.72487 -92.21677 266 ft 20 kts 45°
2026-05-08 04:11 34.72583 -92.21557 266 ft 19 kts 46°
2026-05-08 04:11 34.72680 -92.21433 266 ft 21 kts 46°
2026-05-08 04:11 34.72780 -92.21311 266 ft 18 kts 30°
2026-05-08 04:11 34.72868 -92.21390 266 ft 18 kts 296°
2026-05-08 04:12 34.72918 -92.21523 266 ft 17 kts 294°
2026-05-08 04:12 34.72966 -92.21650 266 ft 16 kts 294°
2026-05-08 04:12 34.73012 -92.21773 266 ft 16 kts 298°
2026-05-08 04:12 34.73103 -92.21785 266 ft 15 kts
2026-05-08 04:13 34.73175 -92.21861 266 ft 14 kts 298°
2026-05-08 04:13 34.73210 -92.21971 266 ft 14 kts 289°
2026-05-08 04:13 34.73155 -92.22046 266 ft 13 kts 200°
2026-05-08 04:13 34.73098 -92.22058 266 ft 4 kts 132°
2026-05-08 04:14 34.73075 -92.22029 266 ft 5 kts 134°
2026-05-08 04:14 34.73072 -92.22025 266 ft 0 kts 134°